Home > Weather > Enns > Past weeks

Flag for Austria Past Weather in Enns, Upper Austria, Austria — Yesterday and Last 2 Weeks

Now
77 °F

Passing clouds.


Feels Like: 79 °F
Forecast: 58 / 80 °F
Wind: 3 mph from Southeast

Location: Linz / Hoersching-Flughafen

Current Time: Aug 24, 2016 at 2:23:00 PM

Latest Report: Aug 24, 2016 at 1:00 PM


Visibility: 11 mi

Pressure: 30.25 "Hg

Humidity: 49%

Dew Point: 57 °F

Location of EnnsLocation

Past Weather in Enns — Graph

°F

Enns Temperature Yesterday

Maximum temperature yesterday: 77 °F (at 5:00 PM)
Minimum temperature yesterday: 53 °F (at 6:00 AM)
Average temperature yesterday: 64 °F

High & Low Weather Summary for the Past Weeks

 TemperatureHumidityPressure
High83 °F (Aug 20, 4:00 PM)98% (Aug 16, 5:00 AM)30.42 "Hg (Aug 16, 5:00 AM)
Low49 °F (Aug 12, 3:00 AM)35% (Aug 20, 5:00 PM)29.77 "Hg (Aug 18, 5:00 PM)
Average64 °F76%30.11 "Hg
* Reported Aug 9 1:00 PM — Aug 24 1:00 PM, Enns, Weather by CustomWeather, © 2016

Note: Actual official high and low records may vary slightly from our data, if they occured in-between our weather recording intervals... More about our weather records

Advertising

Enns Weather History for the Previous 24 Hours

Scroll right to see more
 ConditionsComfort  
Time TempWeatherWind HumidityBarometerVisibility
1:00 PM
Wed, Aug 24
77 °FPassing clouds.3 mph49%30.25 "Hg11 mi
12:00 PM75 °FPassing clouds.3 mph54%30.27 "Hg19 mi
11:00 AM73 °FPassing clouds.N/A61%30.28 "Hg13 mi
10:00 AM69 °FPassing clouds.3 mph70%30.29 "Hg25 mi
8:00 AMN/APassing clouds.12 mphN/AN/A3 mi
7:00 AM56 °FRain. Sunny.N/A98%30.32 "Hg11 mi
6:00 AM57 °FLight rain. Clear.No wind97%30.31 "Hg1 mi
5:00 AM58 °FPassing clouds.N/A97%30.30 "Hg6 mi
4:00 AM59 °FPassing clouds.No wind94%30.31 "Hg16 mi
3:00 AM61 °FCool.N/A95%30.31 "Hg11 mi
2:00 AM62 °FPassing clouds.N/A90%30.32 "Hg22 mi
9:00 PM
Tue, Aug 23
69 °FMild.N/A69%30.30 "Hg18 mi
8:00 PM73 °FPassing clouds.N/A58%30.29 "Hg31 mi
7:00 PM75 °FScattered clouds.N/A52%30.28 "Hg28 mi
6:00 PMN/APassing clouds.15 mphN/AN/A4 mi
5:00 PM77 °FScattered clouds.N/A46%30.29 "Hg28 mi
4:00 PM76 °FPassing clouds.N/A47%30.30 "Hg22 mi
3:00 PM74 °FPassing clouds.3 mph50%30.32 "Hg19 mi
2:00 PM74 °FScattered clouds.5 mph52%30.33 "Hg25 mi
Weather by CustomWeather, © 2016

See weather overviewHow to use our weather pages